{"data":{"norad_id":68886,"epoch":"2026-05-24T22:34:58.392768Z","epoch_age_seconds":76177,"freshness":"FRESH","line1":"1 68886U 26095Y   26144.94095362 -.00256590  00000+0 -75210-2 0  9998","line2":"2 68886  51.8818 354.7364 0004587 197.2816 162.8014 15.35668234  4154","mean_motion":15.35668234,"eccentricity":0.0004587,"inclination_deg":51.8818,"raan_deg":354.7364,"arg_perigee_deg":197.2816,"mean_anomaly_deg":162.8014,"bstar":-0.007521,"rev_number":415,"period_min":93.77025376433,"perigee_km":455.80021034928,"apogee_km":462.07254146433,"semimajor_km":6837.0733759068,"source":"CELESTRAK","updated_at":"2026-05-25T13:38:08.650277Z"}}